Location: Newark
(46.1292°N, 1.0086°W)
Time: 22:30:32
(UTC+00:00)

Vanguard 3 - Pass Details

Date: 23 November 2019
Orbit: 508 x 3263 km, 33.3° (Epoch: 10 December)

Event Time Altitude Azimuth Distance (km) Brightness Sun altitude
Rises 18:25:35 0° 277° (W) 7,203 13.4 -20.5°
Reaches altitude 10° 18:31:37 10° 268° (W) 6,024 12.7 -21.5°
Maximum altitude 18:45:25 28° 219° (SW) 3,898 11.0 -23.9°
Drops below altitude 10° 18:55:24 10° 166° (SSE) 4,283 10.7 -25.7°
Sets 18:58:51 0° 155° (SSE) 4,891 10.9 -26.2°
